Tracking 19283 objects as of 17-Nov-2018
HD Live streaming from Space Station
objects crossing your sky now

PROGNOZ 6

Track PROGNOZ 6 now!
PROGNOZ 6 is classified as:


NORAD ID: 10370
Int'l Code: 1977-093A
Perigee: 940.9 km
Apogee: 197,279.3 km
Inclination: 56.5 °
Period: 5,682.3 minutes
Semi major axis: 105481 km
RCS: 2.5179 m2 (large)
Launch date: September 22, 1977
Source: Commonwealth of Independent States (former USSR) (CIS)
Launch site: TYURATAM MISSILE AND SPACE COMPLEX (TTMTR)
aabbcc
Your satellite tracking list
Your tracking list is empty




NASA's NSSDC Master Catalog

Two Line Element Set (TLE):
1 10370U 77093A   18314.54230226  .00000760  00000-0  00000+0 0  9990
2 10370  56.5038 275.4347 9306808 229.3143   7.8443  0.25342011 35709
Source of the keplerian elements: AFSPC